This demonstration page uses our WeatherBlox Daily Observations layout. Learn more.

Left ArrowRight Arrow

40.92501, -98.34201

Hourly Observations for June 19, 2020

Temp ( °F °C ) Dew Point ( °F °C ) Humidity (%) Winds ( mph kmh ) Pressure ( in mb ) Visibility ( mi km ) Precip ( " mm )
12:53 am 00:53 Clear 63 17.2 55 12.8 76 76 NNE 5 7 30.03 1017 10 16 0.00 0.00
1:53 am 01:53 Mostly Cloudy 63 17.2 55 12.8 76 76 NNW 6 9 30.04 1017 10 16 0.00 0.00
2:53 am 02:53 Mostly Cloudy 62 16.7 55 12.8 78 78 N 3 6 30.03 1017 10 16 0.00 0.00
3:53 am 03:53 Clear 60 15.6 54 12.2 80 80 NW 5 7 30.04 1017 10 16 0.00 0.00
4:53 am 04:53 Clear 58 14.4 53 11.7 84 84 NNW 6 9 30.05 1018 10 16 0.00 0.00
5:53 am 05:53 Cloudy 58 14.4 54 12.2 87 87 N 6 9 30.07 1018 10 16 0.00 0.00
6:53 am 06:53 Sunny 59 15 54 12.2 83 83 N 5 7 30.08 1019 10 16 0.00 0.00
7:53 am 07:53 Partly Cloudy 61 16.1 55 12.8 81 81 N 6 9 30.06 1018 10 16 0.00 0.00
8:53 am 08:53 Sunny 67 19.4 57 13.9 71 71 NE 8 13 30.05 1018 10 16 0.00 0.00
9:53 am 09:53 Cloudy 68 20 56 13.3 65 65 NE 14 22 30.05 1018 10 16 0.00 0.00
10:53 am 10:53 Partly Cloudy 69 20.6 57 13.9 66 66 ENE 12 19 30.08 1019 10 16 0.00 0.00
11:53 am 11:53 Partly Cloudy 71 21.7 57 13.9 61 61 ENE 13 20 30.08 1019 10 16 0.00 0.00
12:53 pm 12:53 Cloudy 72 22.2 56 13.3 57 57 ENE 15 24 30.07 1018 10 16 0.00 0.00
1:53 pm 13:53 Cloudy with Light Rain 70 21.1 56 13.3 61 61 E 13 20 30.08 1019 8 13 0.00 0.00
2:53 pm 14:53 Cloudy 70 21.1 55 12.8 59 59 E 13 20 30.06 1018 10 16 0.00 0.00
3:53 pm 15:53 Mostly Cloudy 71 21.7 60 15.6 68 68 E 10 17 30.04 1017 10 16 0.00 0.00
4:53 pm 16:53 Cloudy 71 21.7 59 15 66 66 E 8 13 30.04 1017 10 16 0.00 0.00
5:53 pm 17:53 Cloudy 72 22.2 59 15 64 64 E 8 13 30.02 1017 10 16 0.00 0.00
6:53 pm 18:53 Cloudy 72 22.2 59 15 64 64 E 7 11 30.01 1016 10 16 0.00 0.00
7:53 pm 19:53 Cloudy 71 21.7 59 15 66 66 E 6 9 30.02 1017 10 16 0.00 0.00
8:53 pm 20:53 Cloudy 71 21.7 58 14.4 63 63 E 6 9 30.01 1016 10 16 0.00 0.00
9:53 pm 21:53 Cloudy 70 21.1 55 12.8 59 59 E 7 11 30.02 1017 10 16 0.00 0.00
10:53 pm 22:53 Cloudy 67 19.4 57 13.9 71 71 ENE 3 6 30.03 1017 10 16 0.00 0.00
11:53 pm 23:53 Cloudy 68 20 57 13.9 68 68 E 5 7 30.03 1017 10 16 0.00 0.00

Powered by AerisWeather